Time,TemperatureF,DewpointF,PressureIn,WindDirection,WindDirectionDegrees,WindSpeedMPH,WindSpeedGustMPH,Humidity,HourlyPrecipIn,Conditions,Clouds,dailyrainin,SoftwareType,DateUTC
2013-04-22 00:01:00,52.1,37.8,24.41,SW,215,0.0,0.0,58,0.00,,,0.00,Wunderground v.1.15,2013-04-22 05:01:00,
2013-04-22 00:06:00,52.0,37.7,24.39,SW,215,0.0,0.0,58,0.00,,,0.00,Wunderground v.1.15,2013-04-22 05:06:00,
2013-04-22 00:11:00,51.8,37.5,24.39,SW,215,0.0,0.0,58,0.00,,,0.00,Wunderground v.1.15,2013-04-22 05:11:00,
2013-04-22 00:17:00,51.7,37.4,24.39,SW,215,0.0,0.0,58,0.00,,,0.00,Wunderground v.1.15,2013-04-22 05:17:00,
2013-04-22 00:22:00,51.5,37.6,24.31,SW,214,0.0,1.0,59,0.00,,,0.00,Wunderground v.1.15,2013-04-22 05:22:00,
2013-04-22 00:27:00,51.4,37.5,24.36,SW,215,0.0,1.0,59,0.00,,,0.00,Wunderground v.1.15,2013-04-22 05:27:00,
2013-04-22 00:33:00,51.3,37.4,24.36,SW,215,0.0,0.0,59,0.00,,,0.00,Wunderground v.1.15,2013-04-22 05:33:00,
2013-04-22 00:38:00,51.1,37.3,24.25,SW,215,0.0,0.0,59,0.00,,,0.00,Wunderground v.1.15,2013-04-22 05:38:00,
2013-04-22 00:43:00,51.0,37.6,24.25,SW,215,0.0,0.0,60,0.00,,,0.00,Wunderground v.1.15,2013-04-22 05:43:00,
2013-04-22 00:49:00,50.8,37.4,24.31,SW,215,0.0,0.0,60,0.00,,,0.00,Wunderground v.1.15,2013-04-22 05:49:00,
2013-04-22 00:55:00,50.7,37.3,24.22,SW,215,0.0,0.0,60,0.00,,,0.00,Wunderground v.1.15,2013-04-22 05:55:00,
2013-04-22 01:00:00,50.5,37.1,24.16,SW,215,0.0,0.0,60,0.00,,,0.00,Wunderground v.1.15,2013-04-22 06:00:00,
2013-04-22 01:05:00,50.4,37.4,24.16,SW,215,0.0,0.0,61,0.00,,,0.00,Wunderground v.1.15,2013-04-22 06:05:00,
2013-04-22 01:11:00,50.2,37.3,24.16,SW,214,0.0,0.0,61,0.00,,,0.00,Wunderground v.1.15,2013-04-22 06:11:00,
2013-04-22 01:16:00,50.0,37.1,24.27,SW,214,0.0,0.0,61,0.00,,,0.00,Wunderground v.1.15,2013-04-22 06:16:00,
2013-04-22 01:21:00,49.9,37.4,24.27,SW,214,0.0,0.0,62,0.00,,,0.00,Wunderground v.1.15,2013-04-22 06:21:00,
2013-04-22 01:27:00,49.7,37.2,24.15,SW,215,0.0,0.0,62,0.00,,,0.00,Wunderground v.1.15,2013-04-22 06:27:00,
2013-04-22 01:32:00,49.5,37.0,24.15,SW,215,0.0,0.0,62,0.00,,,0.00,Wunderground v.1.15,2013-04-22 06:32:00,
2013-04-22 01:37:00,49.4,37.3,24.28,SW,215,0.0,0.0,63,0.00,,,0.00,Wunderground v.1.15,2013-04-22 06:37:00,
2013-04-22 01:42:00,49.2,37.1,24.28,SW,215,0.0,0.0,63,0.00,,,0.00,Wunderground v.1.15,2013-04-22 06:42:00,
2013-04-22 01:48:00,49.1,37.4,24.36,SW,215,0.0,0.0,64,0.00,,,0.00,Wunderground v.1.15,2013-04-22 06:48:00,
2013-04-22 01:53:00,48.9,37.3,24.17,SW,215,0.0,0.0,64,0.00,,,0.00,Wunderground v.1.15,2013-04-22 06:53:00,
2013-04-22 01:58:00,48.8,37.2,24.17,SW,215,0.0,0.0,64,0.00,,,0.00,Wunderground v.1.15,2013-04-22 06:58:00,
2013-04-22 02:03:00,48.7,37.1,24.23,SW,215,0.0,0.0,64,0.00,,,0.00,Wunderground v.1.15,2013-04-22 07:03:00,
2013-04-22 02:08:00,48.6,37.0,24.34,SW,214,0.0,0.0,64,0.00,,,0.00,Wunderground v.1.15,2013-04-22 07:08:00,
2013-04-22 02:13:00,48.5,37.3,24.34,SW,214,0.0,0.0,65,0.00,,,0.00,Wunderground v.1.15,2013-04-22 07:13:00,
2013-04-22 02:18:00,48.4,37.2,24.28,SW,215,0.0,0.0,65,0.00,,,0.00,Wunderground v.1.15,2013-04-22 07:18:00,
2013-04-22 02:23:00,48.3,37.1,24.28,SW,215,0.0,0.0,65,0.00,,,0.00,Wunderground v.1.15,2013-04-22 07:23:00,
2013-04-22 02:28:00,48.1,36.9,24.31,SW,215,0.0,0.0,65,0.00,,,0.00,Wunderground v.1.15,2013-04-22 07:28:00,
2013-04-22 02:33:00,48.0,36.8,24.28,SW,214,0.0,0.0,65,0.00,,,0.00,Wunderground v.1.15,2013-04-22 07:33:00,
2013-04-22 02:38:00,47.8,36.6,24.28,SW,215,0.0,0.0,65,0.00,,,0.00,Wunderground v.1.15,2013-04-22 07:38:00,
2013-04-22 02:43:00,47.7,36.5,24.35,SW,215,0.0,0.0,65,0.00,,,0.00,Wunderground v.1.15,2013-04-22 07:43:00,
2013-04-22 02:48:00,47.5,36.3,24.34,SW,215,0.0,0.0,65,0.00,,,0.00,Wunderground v.1.15,2013-04-22 07:48:00,
2013-04-22 02:53:00,47.3,36.5,24.37,SW,214,0.0,0.0,66,0.00,,,0.00,Wunderground v.1.15,2013-04-22 07:53:00,
2013-04-22 02:58:00,47.2,36.8,24.37,SW,215,0.0,0.0,67,0.00,,,0.00,Wunderground v.1.15,2013-04-22 07:58:00,
2013-04-22 03:03:00,47.0,36.6,24.37,SW,215,0.0,0.0,67,0.00,,,0.00,Wunderground v.1.15,2013-04-22 08:03:00,
2013-04-22 03:08:00,46.9,36.9,24.37,SW,215,0.0,0.0,68,0.00,,,0.00,Wunderground v.1.15,2013-04-22 08:08:00,
2013-04-22 03:13:00,46.8,36.8,24.37,SW,214,0.0,0.0,68,0.00,,,0.00,Wunderground v.1.15,2013-04-22 08:13:00,
2013-04-22 03:18:00,46.6,37.0,24.37,SW,215,0.0,0.0,69,0.00,,,0.00,Wunderground v.1.15,2013-04-22 08:18:00,
2013-04-22 03:23:00,46.5,36.9,24.37,SW,214,0.0,0.0,69,0.00,,,0.00,Wunderground v.1.15,2013-04-22 08:23:00,
2013-04-22 03:28:00,46.4,37.1,24.37,SW,214,0.0,0.0,70,0.00,,,0.00,Wunderground v.1.15,2013-04-22 08:28:00,
2013-04-22 03:33:00,46.2,36.6,24.37,SW,215,0.0,0.0,69,0.00,,,0.00,Wunderground v.1.15,2013-04-22 08:33:00,
2013-04-22 03:38:00,46.1,36.9,24.37,SW,215,0.0,0.0,70,0.00,,,0.00,Wunderground v.1.15,2013-04-22 08:38:00,
2013-04-22 03:43:00,46.0,36.8,24.37,SW,214,0.0,0.0,70,0.00,,,0.00,Wunderground v.1.15,2013-04-22 08:43:00,
2013-04-22 03:49:00,45.9,36.7,24.37,SW,215,0.0,0.0,70,0.00,,,0.00,Wunderground v.1.15,2013-04-22 08:49:00,
2013-04-22 03:54:00,45.8,36.9,23.77,SW,215,0.0,0.0,71,0.00,,,0.00,Wunderground v.1.15,2013-04-22 08:54:00,
2013-04-22 03:59:00,45.7,37.2,23.77,SW,214,0.0,0.0,72,0.00,,,0.00,Wunderground v.1.15,2013-04-22 08:59:00,
2013-04-22 04:04:00,45.6,37.1,23.77,SW,214,0.0,0.0,72,0.00,,,0.00,Wunderground v.1.15,2013-04-22 09:04:00,
2013-04-22 04:09:00,45.5,37.3,23.77,SW,215,0.0,0.0,73,0.00,,,0.00,Wunderground v.1.15,2013-04-22 09:09:00,
2013-04-22 04:14:00,45.5,37.3,23.77,SW,214,0.0,0.0,73,0.00,,,0.00,Wunderground v.1.15,2013-04-22 09:14:00,
2013-04-22 04:19:00,45.5,37.7,23.77,SW,215,0.0,0.0,74,0.00,,,0.00,Wunderground v.1.15,2013-04-22 09:19:00,
2013-04-22 04:24:00,45.4,37.6,23.77,SW,215,0.0,0.0,74,0.00,,,0.00,Wunderground v.1.15,2013-04-22 09:24:00,
2013-04-22 04:29:00,45.3,37.5,23.77,SW,215,0.0,0.0,74,0.00,,,0.00,Wunderground v.1.15,2013-04-22 09:29:00,
2013-04-22 04:34:00,45.2,37.4,24.84,SW,214,0.0,0.0,74,0.00,,,0.00,Wunderground v.1.15,2013-04-22 09:34:00,
2013-04-22 04:39:00,45.2,37.4,24.84,SW,215,0.0,0.0,74,0.00,,,0.00,Wunderground v.1.15,2013-04-22 09:39:00,
2013-04-22 04:44:00,45.0,37.2,24.84,SW,215,0.0,0.0,74,0.00,,,0.00,Wunderground v.1.15,2013-04-22 09:44:00,
2013-04-22 04:49:00,45.0,37.2,24.84,SW,214,0.0,0.0,74,0.00,,,0.00,Wunderground v.1.15,2013-04-22 09:49:00,
2013-04-22 04:54:00,44.9,37.1,24.84,SW,214,0.0,0.0,74,0.00,,,0.00,Wunderground v.1.15,2013-04-22 09:54:00,
2013-04-22 04:59:00,44.7,37.3,24.84,SW,215,0.0,0.0,75,0.00,,,0.00,Wunderground v.1.15,2013-04-22 09:59:00,
2013-04-22 05:04:00,44.5,37.1,24.84,SW,215,0.0,0.0,75,0.00,,,0.00,Wunderground v.1.15,2013-04-22 10:04:00,
2013-04-22 05:09:00,44.4,37.3,24.84,SW,215,0.0,0.0,76,0.00,,,0.00,Wunderground v.1.15,2013-04-22 10:09:00,
2013-04-22 05:14:00,44.2,37.1,24.84,SW,215,0.0,0.0,76,0.00,,,0.00,Wunderground v.1.15,2013-04-22 10:14:00,
2013-04-22 05:19:00,44.1,37.0,24.84,SW,215,0.0,0.0,76,0.00,,,0.00,Wunderground v.1.15,2013-04-22 10:19:00,
2013-04-22 05:24:00,43.9,36.8,24.84,SW,215,0.0,0.0,76,0.00,,,0.00,Wunderground v.1.15,2013-04-22 10:24:00,
2013-04-22 05:29:00,43.8,36.7,24.84,SW,214,0.0,0.0,76,0.00,,,0.00,Wunderground v.1.15,2013-04-22 10:29:00,
2013-04-22 05:34:00,43.6,36.5,24.84,SW,214,0.0,0.0,76,0.00,,,0.00,Wunderground v.1.15,2013-04-22 10:34:00,
2013-04-22 05:39:00,43.4,36.3,24.84,SW,215,0.0,0.0,76,0.00,,,0.00,Wunderground v.1.15,2013-04-22 10:39:00,
2013-04-22 05:44:00,43.2,36.5,24.84,SW,215,0.0,0.0,77,0.00,,,0.00,Wunderground v.1.15,2013-04-22 10:44:00,
2013-04-22 05:49:00,43.1,36.4,24.84,SW,215,0.0,0.0,77,0.00,,,0.00,Wunderground v.1.15,2013-04-22 10:49:00,
2013-04-22 05:54:00,42.9,36.5,24.37,SW,214,0.0,0.0,78,0.00,,,0.00,Wunderground v.1.15,2013-04-22 10:54:00,
2013-04-22 05:59:00,42.8,36.4,24.38,SW,215,0.0,0.0,78,0.00,,,0.00,Wunderground v.1.15,2013-04-22 10:59:00,
2013-04-22 06:04:00,42.7,36.3,24.25,SW,214,0.0,0.0,78,0.00,,,0.00,Wunderground v.1.15,2013-04-22 11:04:00,
2013-04-22 06:09:00,42.5,36.1,24.27,SW,215,0.0,0.0,78,0.00,,,0.00,Wunderground v.1.15,2013-04-22 11:09:00,
2013-04-22 06:14:00,42.4,36.0,24.50,SW,215,0.0,0.0,78,0.00,,,0.00,Wunderground v.1.15,2013-04-22 11:14:00,
2013-04-22 06:19:00,42.3,36.3,24.50,SW,214,0.0,0.0,79,0.00,,,0.00,Wunderground v.1.15,2013-04-22 11:19:00,
2013-04-22 06:24:00,42.3,36.6,24.50,SW,215,0.0,0.0,80,0.00,,,0.00,Wunderground v.1.15,2013-04-22 11:24:00,
2013-04-22 06:29:00,42.2,36.8,24.50,SW,215,0.0,0.0,81,0.00,,,0.00,Wunderground v.1.15,2013-04-22 11:29:00,
2013-04-22 06:34:00,42.2,36.8,24.40,SW,215,0.0,0.0,81,0.00,,,0.00,Wunderground v.1.15,2013-04-22 11:34:00,
2013-04-22 06:39:00,42.2,36.8,24.27,SW,215,0.0,0.0,81,0.00,,,0.00,Wunderground v.1.15,2013-04-22 11:39:00,
2013-04-22 06:44:00,42.0,36.6,24.28,SW,215,0.0,0.0,81,0.00,,,0.00,Wunderground v.1.15,2013-04-22 11:44:00,
2013-04-22 06:49:00,42.0,36.6,24.29,SW,214,0.0,0.0,81,0.00,,,0.00,Wunderground v.1.15,2013-04-22 11:49:00,
2013-04-22 06:54:00,41.9,36.5,24.30,SW,214,0.0,0.0,81,0.00,,,0.00,Wunderground v.1.15,2013-04-22 11:54:00,
2013-04-22 06:59:00,41.8,36.4,24.34,SW,215,0.0,0.0,81,0.00,,,0.00,Wunderground v.1.15,2013-04-22 11:59:00,
2013-04-22 07:04:00,41.8,36.4,24.30,SW,215,0.0,0.0,81,0.00,,,0.00,Wunderground v.1.15,2013-04-22 12:04:00,
2013-04-22 07:09:00,41.7,36.3,24.38,SW,215,0.0,0.0,81,0.00,,,0.00,Wunderground v.1.15,2013-04-22 12:09:00,
2013-04-22 07:14:00,41.7,36.6,24.38,SW,215,0.0,0.0,82,0.00,,,0.00,Wunderground v.1.15,2013-04-22 12:14:00,
2013-04-22 07:19:00,41.9,37.1,24.38,SW,215,0.0,0.0,83,0.00,,,0.00,Wunderground v.1.15,2013-04-22 12:19:00,
2013-04-22 07:24:00,42.3,37.8,24.38,SW,214,0.0,0.0,84,0.00,,,0.00,Wunderground v.1.15,2013-04-22 12:24:00,
2013-04-22 07:30:00,42.8,38.6,24.38,SW,215,0.0,0.0,85,0.00,,,0.00,Wunderground v.1.15,2013-04-22 12:30:00,
2013-04-22 07:35:00,43.4,39.2,24.37,SW,215,0.0,0.0,85,0.00,,,0.00,Wunderground v.1.15,2013-04-22 12:35:00,
2013-04-22 07:40:00,44.0,40.1,24.37,SW,214,0.0,0.0,86,0.00,,,0.00,Wunderground v.1.15,2013-04-22 12:40:00,
2013-04-22 07:45:00,46.0,42.3,24.29,SW,215,0.0,0.0,87,0.00,,,0.00,Wunderground v.1.15,2013-04-22 12:45:00,
2013-04-22 07:50:00,48.0,43.7,24.29,SW,215,0.0,0.0,85,0.00,,,0.00,Wunderground v.1.15,2013-04-22 12:50:00,
2013-04-22 07:55:00,49.7,44.4,24.27,SW,215,0.0,0.0,82,0.00,,,0.00,Wunderground v.1.15,2013-04-22 12:55:00,
2013-04-22 08:00:00,50.8,44.9,24.29,SW,215,0.0,0.0,80,0.00,,,0.00,Wunderground v.1.15,2013-04-22 13:00:00,
2013-04-22 08:05:00,51.2,44.6,24.37,SW,215,0.0,0.0,78,0.00,,,0.00,Wunderground v.1.15,2013-04-22 13:05:00,
2013-04-22 08:10:00,51.8,44.5,24.37,SW,214,0.0,0.0,76,0.00,,,0.00,Wunderground v.1.15,2013-04-22 13:10:00,
2013-04-22 08:15:00,53.0,44.9,24.37,SW,214,0.0,0.0,74,0.00,,,0.00,Wunderground v.1.15,2013-04-22 13:15:00,
2013-04-22 08:20:00,54.5,43.8,24.37,SW,214,0.0,1.0,67,0.00,,,0.00,Wunderground v.1.15,2013-04-22 13:20:00,
2013-04-22 08:25:00,55.9,44.3,24.37,SW,215,0.0,0.0,65,0.00,,,0.00,Wunderground v.1.15,2013-04-22 13:25:00,
2013-04-22 08:30:00,57.0,43.7,24.36,SW,215,0.0,2.0,61,0.00,,,0.00,Wunderground v.1.15,2013-04-22 13:30:00,
2013-04-22 08:35:00,57.3,43.1,24.43,SW,215,0.0,3.0,59,0.00,,,0.00,Wunderground v.1.15,2013-04-22 13:35:00,
2013-04-22 08:40:00,57.8,44.0,24.36,SW,214,0.0,3.0,60,0.00,,,0.00,Wunderground v.1.15,2013-04-22 13:40:00,
2013-04-22 08:45:00,58.2,43.0,24.41,SSW,194,0.0,2.0,57,0.00,,,0.00,Wunderground v.1.15,2013-04-22 13:45:00,
2013-04-22 08:50:00,59.0,44.2,24.41,South,188,0.0,2.0,58,0.00,,,0.00,Wunderground v.1.15,2013-04-22 13:50:00,
2013-04-22 08:55:00,59.6,43.9,24.02,SSW,198,0.0,1.0,56,0.00,,,0.00,Wunderground v.1.15,2013-04-22 13:55:00,
2013-04-22 09:00:00,60.3,44.5,24.02,SSE,167,0.0,1.0,56,0.00,,,0.00,Wunderground v.1.15,2013-04-22 14:00:00,
2013-04-22 09:05:00,61.0,44.2,24.02,NE,53,1.0,5.0,54,0.00,,,0.00,Wunderground v.1.15,2013-04-22 14:05:00,
2013-04-22 09:10:00,61.8,44.5,24.02,NE,49,0.0,5.0,53,0.00,,,0.00,Wunderground v.1.15,2013-04-22 14:10:00,
2013-04-22 09:15:00,62.4,43.0,24.02,WSW,250,0.0,2.0,49,0.00,,,0.00,Wunderground v.1.15,2013-04-22 14:15:00,
2013-04-22 09:20:00,62.8,43.3,24.16,ESE,113,1.0,4.0,49,0.00,,,0.00,Wunderground v.1.15,2013-04-22 14:20:00,
2013-04-22 09:25:00,63.5,42.9,24.16,South,173,0.0,2.0,47,0.00,,,0.00,Wunderground v.1.15,2013-04-22 14:25:00,
2013-04-22 09:30:00,63.6,42.4,24.46,NE,37,0.0,3.0,46,0.00,,,0.00,Wunderground v.1.15,2013-04-22 14:30:00,
2013-04-22 09:35:00,64.0,43.4,24.46,ENE,76,1.0,2.0,47,0.00,,,0.00,Wunderground v.1.15,2013-04-22 14:35:00,
2013-04-22 09:40:00,64.4,43.2,24.46,South,173,0.0,2.0,46,0.00,,,0.00,Wunderground v.1.15,2013-04-22 14:40:00,
2013-04-22 09:45:00,64.9,43.6,24.46,NNW,337,0.0,2.0,46,0.00,,,0.00,Wunderground v.1.15,2013-04-22 14:45:00,
2013-04-22 09:50:00,65.0,43.1,24.46,South,172,0.0,3.0,45,0.00,,,0.00,Wunderground v.1.15,2013-04-22 14:50:00,
2013-04-22 09:55:00,66.1,44.7,24.46,South,171,5.0,5.0,46,0.00,,,0.00,Wunderground v.1.15,2013-04-22 14:55:00,
2013-04-22 10:00:00,66.4,43.8,24.46,SE,138,0.0,5.0,44,0.00,,,0.00,Wunderground v.1.15,2013-04-22 15:00:00,
2013-04-22 10:05:00,67.1,44.4,24.46,SSE,168,0.0,4.0,44,0.00,,,0.00,Wunderground v.1.15,2013-04-22 15:05:00,
2013-04-22 10:10:00,67.4,45.3,24.46,ENE,61,0.0,4.0,45,0.00,,,0.00,Wunderground v.1.15,2013-04-22 15:10:00,
2013-04-22 10:15:00,67.8,45.1,24.46,SSE,161,0.0,5.0,44,0.00,,,0.00,Wunderground v.1.15,2013-04-22 15:15:00,
2013-04-22 10:20:00,68.8,44.1,24.46,South,178,1.0,1.0,41,0.00,,,0.00,Wunderground v.1.15,2013-04-22 15:20:00,
2013-04-22 10:25:00,68.8,44.8,24.46,WSW,249,1.0,3.0,42,0.00,,,0.00,Wunderground v.1.15,2013-04-22 15:25:00,
2013-04-22 10:30:00,68.5,43.9,24.46,SSE,167,0.0,1.0,41,0.00,,,0.00,Wunderground v.1.15,2013-04-22 15:30:00,
2013-04-22 10:35:00,68.6,43.9,24.46,SSW,209,0.0,4.0,41,0.00,,,0.00,Wunderground v.1.15,2013-04-22 15:35:00,
2013-04-22 10:40:00,68.8,44.8,24.46,SSW,202,0.0,0.0,42,0.00,,,0.00,Wunderground v.1.15,2013-04-22 15:40:00,
2013-04-22 10:45:00,69.3,45.2,24.46,SSE,168,6.0,6.0,42,0.00,,,0.00,Wunderground v.1.15,2013-04-22 15:45:00,
2013-04-22 10:50:00,69.4,44.0,24.46,SW,230,0.0,1.0,40,0.00,,,0.00,Wunderground v.1.15,2013-04-22 15:50:00,
2013-04-22 10:55:00,69.8,43.7,24.46,SSE,152,0.0,4.0,39,0.00,,,0.00,Wunderground v.1.15,2013-04-22 15:55:00,
2013-04-22 11:00:00,70.1,45.3,24.46,South,180,0.0,0.0,41,0.00,,,0.00,Wunderground v.1.15,2013-04-22 16:00:00,
2013-04-22 11:05:00,70.6,44.4,24.46,South,181,0.0,2.0,39,0.00,,,0.00,Wunderground v.1.15,2013-04-22 16:05:00,
2013-04-22 11:10:00,70.7,45.8,24.46,SSW,193,0.0,2.0,41,0.00,,,0.00,Wunderground v.1.15,2013-04-22 16:10:00,
2013-04-22 11:15:00,70.7,44.5,24.46,SSW,195,0.0,3.0,39,0.00,,,0.00,Wunderground v.1.15,2013-04-22 16:15:00,
2013-04-22 11:20:00,70.9,44.7,24.46,SW,219,0.0,1.0,39,0.00,,,0.00,Wunderground v.1.15,2013-04-22 16:20:00,
2013-04-22 11:25:00,70.5,45.0,24.46,West,271,1.0,2.0,40,0.00,,,0.00,Wunderground v.1.15,2013-04-22 16:25:00,
2013-04-22 11:30:00,70.8,44.6,24.46,West,278,0.0,1.0,39,0.00,,,0.00,Wunderground v.1.15,2013-04-22 16:30:00,
2013-04-22 11:35:00,71.1,44.9,24.46,SSE,157,4.0,4.0,39,0.00,,,0.00,Wunderground v.1.15,2013-04-22 16:35:00,
2013-04-22 11:40:00,71.4,46.5,24.46,NNE,17,0.0,2.0,41,0.00,,,0.00,Wunderground v.1.15,2013-04-22 16:40:00,
2013-04-22 11:45:00,71.5,45.2,24.91,SSE,150,1.0,2.0,39,0.00,,,0.00,Wunderground v.1.15,2013-04-22 16:45:00,
2013-04-22 11:50:00,71.2,45.6,24.91,South,174,0.0,0.0,40,0.00,,,0.00,Wunderground v.1.15,2013-04-22 16:50:00,
2013-04-22 11:55:00,71.5,45.9,24.91,WSW,246,1.0,3.0,40,0.00,,,0.00,Wunderground v.1.15,2013-04-22 16:55:00,
2013-04-22 12:00:00,72.2,46.5,24.91,NE,41,0.0,1.0,40,0.00,,,0.00,Wunderground v.1.15,2013-04-22 17:00:00,
2013-04-22 12:05:00,72.2,46.5,24.91,South,173,0.0,7.0,40,0.00,,,0.00,Wunderground v.1.15,2013-04-22 17:05:00,
2013-04-22 12:10:00,72.8,45.0,24.91,SW,223,1.0,2.0,37,0.00,,,0.00,Wunderground v.1.15,2013-04-22 17:10:00,
2013-04-22 12:15:00,72.4,44.6,24.91,SW,221,0.0,7.0,37,0.00,,,0.00,Wunderground v.1.15,2013-04-22 17:15:00,
2013-04-22 12:20:00,73.0,46.6,24.91,SSW,200,1.0,1.0,39,0.00,,,0.00,Wunderground v.1.15,2013-04-22 17:20:00,
2013-04-22 12:25:00,73.3,45.4,24.91,SSE,165,0.0,2.0,37,0.00,,,0.00,Wunderground v.1.15,2013-04-22 17:25:00,
2013-04-22 12:30:00,73.4,44.1,25.41,SSW,195,5.0,5.0,35,0.00,,,0.00,Wunderground v.1.15,2013-04-22 17:30:00,
2013-04-22 12:35:00,73.6,46.4,25.41,WSW,246,0.0,6.0,38,0.00,,,0.00,Wunderground v.1.15,2013-04-22 17:35:00,
2013-04-22 12:40:00,74.2,46.2,25.41,SE,132,0.0,0.0,37,0.00,,,0.00,Wunderground v.1.15,2013-04-22 17:40:00,
2013-04-22 12:45:00,73.3,44.7,25.44,ESE,122,2.0,3.0,36,0.00,,,0.00,Wunderground v.1.15,2013-04-22 17:45:00,
2013-04-22 12:50:00,72.6,45.5,25.44,South,171,1.0,1.0,38,0.00,,,0.00,Wunderground v.1.15,2013-04-22 17:50:00,
2013-04-22 12:55:00,73.2,46.8,25.44,SW,234,1.0,4.0,39,0.00,,,0.00,Wunderground v.1.15,2013-04-22 17:55:00,
2013-04-22 13:00:00,73.7,47.2,25.23,SSW,209,1.0,1.0,39,0.00,,,0.00,Wunderground v.1.15,2013-04-22 18:00:00,
2013-04-22 13:05:00,73.7,47.2,25.23,SE,124,0.0,3.0,39,0.00,,,0.00,Wunderground v.1.15,2013-04-22 18:05:00,
2013-04-22 13:10:00,73.9,45.3,24.88,SE,142,0.0,1.0,36,0.00,,,0.00,Wunderground v.1.15,2013-04-22 18:10:00,
2013-04-22 13:15:00,74.1,46.9,24.96,East,90,0.0,2.0,38,0.00,,,0.00,Wunderground v.1.15,2013-04-22 18:15:00,
2013-04-22 13:20:00,74.6,47.3,24.98,South,176,0.0,1.0,38,0.00,,,0.00,Wunderground v.1.15,2013-04-22 18:20:00,
2013-04-22 13:25:00,74.6,47.3,24.29,NW,321,0.0,2.0,38,0.00,,,0.00,Wunderground v.1.15,2013-04-22 18:25:00,
2013-04-22 13:30:00,74.6,46.6,24.30,ESE,120,0.0,0.0,37,0.00,,,0.00,Wunderground v.1.15,2013-04-22 18:30:00,
2013-04-22 13:35:00,74.4,47.1,24.31,SE,125,1.0,2.0,38,0.00,,,0.00,Wunderground v.1.15,2013-04-22 18:35:00,
2013-04-22 13:41:00,74.1,44.7,24.33,SW,236,0.0,1.0,35,0.00,,,0.00,Wunderground v.1.15,2013-04-22 18:41:00,
2013-04-22 13:46:00,73.2,44.6,24.29,South,187,0.0,5.0,36,0.00,,,0.00,Wunderground v.1.15,2013-04-22 18:46:00,
2013-04-22 13:51:00,72.4,43.9,24.35,South,186,0.0,1.0,36,0.00,,,0.00,Wunderground v.1.15,2013-04-22 18:51:00,
2013-04-22 13:56:00,71.8,44.1,24.35,WSW,244,1.0,3.0,37,0.00,,,0.00,Wunderground v.1.15,2013-04-22 18:56:00,
2013-04-22 14:01:00,73.3,46.8,24.29,ESE,107,0.0,0.0,39,0.00,,,0.00,Wunderground v.1.15,2013-04-22 19:01:00,
2013-04-22 14:05:00,74.5,46.5,24.25,West,274,0.0,9.0,37,0.00,,,0.00,Wunderground v.1.15,2013-04-22 19:05:00,
2013-04-22 14:10:00,75.3,45.7,24.25,SSE,162,1.0,1.0,35,0.00,,,0.00,Wunderground v.1.15,2013-04-22 19:10:00,
2013-04-22 14:16:00,75.4,45.1,24.25,ESE,111,2.0,3.0,34,0.00,,,0.00,Wunderground v.1.15,2013-04-22 19:16:00,
2013-04-22 14:21:00,75.4,45.1,24.19,ESE,109,1.0,3.0,34,0.00,,,0.00,Wunderground v.1.15,2013-04-22 19:21:00,
2013-04-22 14:26:00,74.8,45.3,24.19,SE,146,0.0,5.0,35,0.00,,,0.00,Wunderground v.1.15,2013-04-22 19:26:00,
2013-04-22 14:31:00,74.9,45.4,24.20,WSW,248,0.0,1.0,35,0.00,,,0.00,Wunderground v.1.15,2013-04-22 19:31:00,
2013-04-22 14:36:00,74.3,45.6,24.20,SW,229,0.0,3.0,36,0.00,,,0.00,Wunderground v.1.15,2013-04-22 19:36:00,
2013-04-22 14:41:00,73.5,45.6,24.20,North,355,0.0,1.0,37,0.00,,,0.00,Wunderground v.1.15,2013-04-22 19:41:00,
2013-04-22 14:46:00,72.8,44.3,24.34,SSE,167,0.0,6.0,36,0.00,,,0.00,Wunderground v.1.15,2013-04-22 19:46:00,
2013-04-22 14:51:00,72.2,43.8,24.34,SW,227,2.0,2.0,36,0.00,,,0.00,Wunderground v.1.15,2013-04-22 19:51:00,
2013-04-22 14:56:00,71.7,43.3,24.34,SSW,204,1.0,6.0,36,0.00,,,0.00,Wunderground v.1.15,2013-04-22 19:56:00,
2013-04-22 15:01:00,71.3,43.7,24.34,South,188,0.0,1.0,37,0.00,,,0.00,Wunderground v.1.15,2013-04-22 20:01:00,
2013-04-22 15:06:00,71.2,43.6,24.18,ESE,111,0.0,3.0,37,0.00,,,0.00,Wunderground v.1.15,2013-04-22 20:06:00,
2013-04-22 15:11:00,71.1,44.9,24.36,SSE,156,0.0,1.0,39,0.00,,,0.00,Wunderground v.1.15,2013-04-22 20:11:00,
2013-04-22 15:16:00,71.1,44.9,24.36,ENE,72,0.0,2.0,39,0.00,,,0.00,Wunderground v.1.15,2013-04-22 20:16:00,
2013-04-22 15:21:00,71.3,44.4,24.36,South,188,0.0,0.0,38,0.00,,,0.00,Wunderground v.1.15,2013-04-22 20:21:00,
2013-04-22 15:26:00,71.3,45.7,24.36,South,180,0.0,5.0,40,0.00,,,0.00,Wunderground v.1.15,2013-04-22 20:26:00,
2013-04-22 15:31:00,71.3,43.7,24.21,South,188,0.0,3.0,37,0.00,,,0.00,Wunderground v.1.15,2013-04-22 20:31:00,
2013-04-22 15:36:00,71.0,44.1,24.18,East,89,0.0,3.0,38,0.00,,,0.00,Wunderground v.1.15,2013-04-22 20:36:00,
2013-04-22 15:41:00,70.8,43.2,24.18,SW,217,0.0,4.0,37,0.00,,,0.00,Wunderground v.1.15,2013-04-22 20:41:00,
2013-04-22 15:46:00,71.5,45.9,24.18,ENE,69,1.0,4.0,40,0.00,,,0.00,Wunderground v.1.15,2013-04-22 20:46:00,
2013-04-22 15:51:00,72.2,45.2,24.18,ESE,112,0.0,1.0,38,0.00,,,0.00,Wunderground v.1.15,2013-04-22 20:51:00,
2013-04-22 15:56:00,72.4,46.0,24.26,NE,48,1.0,2.0,39,0.00,,,0.00,Wunderground v.1.15,2013-04-22 20:56:00,
2013-04-22 16:01:00,72.4,44.6,24.35,SSW,198,0.0,1.0,37,0.00,,,0.00,Wunderground v.1.15,2013-04-22 21:01:00,
2013-04-22 16:06:00,72.2,44.5,24.39,South,184,0.0,5.0,37,0.00,,,0.00,Wunderground v.1.15,2013-04-22 21:06:00,
2013-04-22 16:11:00,72.4,46.7,24.41,ENE,60,1.0,1.0,40,0.00,,,0.00,Wunderground v.1.15,2013-04-22 21:11:00,
2013-04-22 16:16:00,72.6,45.5,24.43,West,270,0.0,3.0,38,0.00,,,0.00,Wunderground v.1.15,2013-04-22 21:16:00,
2013-04-22 16:21:00,72.4,46.0,24.43,SE,144,0.0,1.0,39,0.00,,,0.00,Wunderground v.1.15,2013-04-22 21:21:00,
2013-04-22 16:26:00,72.2,45.9,24.40,ENE,58,0.0,3.0,39,0.00,,,0.00,Wunderground v.1.15,2013-04-22 21:26:00,
2013-04-22 16:31:00,72.3,46.6,24.39,SSE,155,0.0,1.0,40,0.00,,,0.00,Wunderground v.1.15,2013-04-22 21:31:00,
2013-04-22 16:36:00,72.2,45.9,24.39,SSW,192,1.0,7.0,39,0.00,,,0.00,Wunderground v.1.15,2013-04-22 21:36:00,
2013-04-22 16:41:00,72.1,46.4,24.39,South,171,1.0,1.0,40,0.00,,,0.00,Wunderground v.1.15,2013-04-22 21:41:00,
2013-04-22 16:46:00,72.1,45.8,24.39,SSW,208,0.0,6.0,39,0.00,,,0.00,Wunderground v.1.15,2013-04-22 21:46:00,
2013-04-22 16:51:00,72.2,46.5,24.39,South,171,2.0,2.0,40,0.00,,,0.00,Wunderground v.1.15,2013-04-22 21:51:00,
2013-04-22 16:56:00,72.1,46.4,24.39,SSW,198,0.0,6.0,40,0.00,,,0.00,Wunderground v.1.15,2013-04-22 21:56:00,
2013-04-22 17:01:00,72.1,46.4,24.39,South,190,0.0,3.0,40,0.00,,,0.00,Wunderground v.1.15,2013-04-22 22:01:00,
2013-04-22 17:06:00,72.1,46.4,24.39,South,172,0.0,6.0,40,0.00,,,0.00,Wunderground v.1.15,2013-04-22 22:06:00,
2013-04-22 17:11:00,72.0,45.7,24.39,South,171,2.0,4.0,39,0.00,,,0.00,Wunderground v.1.15,2013-04-22 22:11:00,
2013-04-22 17:16:00,72.0,47.0,24.39,SE,138,0.0,4.0,41,0.00,,,0.00,Wunderground v.1.15,2013-04-22 22:16:00,
2013-04-22 17:21:00,72.0,47.0,24.39,SSE,159,0.0,1.0,41,0.00,,,0.00,Wunderground v.1.15,2013-04-22 22:21:00,
2013-04-22 17:26:00,71.9,46.3,24.39,ESE,118,1.0,4.0,40,0.00,,,0.00,Wunderground v.1.15,2013-04-22 22:26:00,
2013-04-22 17:31:00,71.8,46.2,24.37,SSE,162,0.0,0.0,40,0.00,,,0.00,Wunderground v.1.15,2013-04-22 22:31:00,
2013-04-22 17:36:00,71.7,46.7,24.37,South,184,2.0,3.0,41,0.00,,,0.00,Wunderground v.1.15,2013-04-22 22:36:00,
2013-04-22 17:41:00,71.6,46.0,24.37,South,177,0.0,3.0,40,0.00,,,0.00,Wunderground v.1.15,2013-04-22 22:41:00,
2013-04-22 17:46:00,71.6,46.6,24.38,South,169,3.0,3.0,41,0.00,,,0.00,Wunderground v.1.15,2013-04-22 22:46:00,
2013-04-22 17:51:00,71.6,46.0,24.39,SSW,200,3.0,3.0,40,0.00,,,0.00,Wunderground v.1.15,2013-04-22 22:51:00,
2013-04-22 17:56:00,71.7,46.1,24.39,SE,125,0.0,3.0,40,0.00,,,0.00,Wunderground v.1.15,2013-04-22 22:56:00,
2013-04-22 18:01:00,71.8,46.2,24.40,ESE,117,5.0,6.0,40,0.00,,,0.00,Wunderground v.1.15,2013-04-22 23:01:00,
2013-04-22 18:06:00,71.8,45.5,24.41,SE,127,0.0,6.0,39,0.00,,,0.00,Wunderground v.1.15,2013-04-22 23:06:00,
2013-04-22 18:11:00,71.8,45.5,24.44,SSW,192,0.0,3.0,39,0.00,,,0.00,Wunderground v.1.15,2013-04-22 23:11:00,
2013-04-22 18:16:00,71.7,45.4,24.40,SSW,195,0.0,3.0,39,0.00,,,0.00,Wunderground v.1.15,2013-04-22 23:16:00,
2013-04-22 18:21:00,71.7,46.7,24.39,SW,219,0.0,1.0,41,0.00,,,0.00,Wunderground v.1.15,2013-04-22 23:21:00,
2013-04-22 18:26:00,71.7,46.7,24.39,South,178,0.0,1.0,41,0.00,,,0.00,Wunderground v.1.15,2013-04-22 23:26:00,
2013-04-22 18:31:00,71.7,47.4,24.39,South,180,0.0,1.0,42,0.00,,,0.00,Wunderground v.1.15,2013-04-22 23:31:00,
2013-04-22 18:36:00,71.6,47.3,24.39,South,184,0.0,2.0,42,0.00,,,0.00,Wunderground v.1.15,2013-04-22 23:36:00,
2013-04-22 18:41:00,71.6,46.6,24.40,South,188,0.0,0.0,41,0.00,,,0.00,Wunderground v.1.15,2013-04-22 23:41:00,
2013-04-22 18:46:00,71.5,46.6,24.40,SSW,203,0.0,3.0,41,0.00,,,0.00,Wunderground v.1.15,2013-04-22 23:46:00,
2013-04-22 18:51:00,71.4,47.1,24.40,South,188,0.0,0.0,42,0.00,,,0.00,Wunderground v.1.15,2013-04-22 23:51:00,
2013-04-22 18:56:00,71.3,47.6,24.41,SW,222,0.0,4.0,43,0.00,,,0.00,Wunderground v.1.15,2013-04-22 23:56:00,
2013-04-22 19:01:00,71.3,47.6,24.39,SW,222,0.0,1.0,43,0.00,,,0.00,Wunderground v.1.15,2013-04-23 00:01:00,
2013-04-22 19:06:00,71.2,47.6,24.40,SW,222,0.0,1.0,43,0.00,,,0.00,Wunderground v.1.15,2013-04-23 00:06:00,
2013-04-22 19:11:00,71.0,47.4,24.38,SW,222,0.0,0.0,43,0.00,,,0.00,Wunderground v.1.15,2013-04-23 00:11:00,
2013-04-22 19:16:00,70.9,47.9,24.38,SW,222,0.0,1.0,44,0.00,,,0.00,Wunderground v.1.15,2013-04-23 00:16:00,
2013-04-22 19:21:00,70.6,47.6,24.36,South,190,0.0,2.0,44,0.00,,,0.00,Wunderground v.1.15,2013-04-23 00:21:00,
2013-04-22 19:26:00,70.4,46.8,24.37,SSW,192,0.0,2.0,43,0.00,,,0.00,Wunderground v.1.15,2013-04-23 00:26:00,
2013-04-22 19:31:00,70.0,47.1,24.38,SSW,192,0.0,0.0,44,0.00,,,0.00,Wunderground v.1.15,2013-04-23 00:31:00,
2013-04-22 19:37:00,69.7,47.4,24.37,SSW,192,0.0,0.0,45,0.00,,,0.00,Wunderground v.1.15,2013-04-23 00:37:00,
2013-04-22 19:42:00,69.4,47.1,24.39,SSW,192,0.0,0.0,45,0.00,,,0.00,Wunderground v.1.15,2013-04-23 00:42:00,
2013-04-22 19:47:00,69.1,47.4,24.39,SSW,192,0.0,0.0,46,0.00,,,0.00,Wunderground v.1.15,2013-04-23 00:47:00,
2013-04-22 19:52:00,68.7,47.1,24.37,SSW,192,0.0,0.0,46,0.00,,,0.00,Wunderground v.1.15,2013-04-23 00:52:00,
2013-04-22 19:57:00,68.4,46.8,24.37,SSW,192,0.0,0.0,46,0.00,,,0.00,Wunderground v.1.15,2013-04-23 00:57:00,
2013-04-22 20:02:00,68.0,46.4,24.38,SSW,192,0.0,0.0,46,0.00,,,0.00,Wunderground v.1.15,2013-04-23 01:02:00,
2013-04-22 20:07:00,67.6,46.6,24.35,SSW,192,0.0,0.0,47,0.00,,,0.00,Wunderground v.1.15,2013-04-23 01:07:00,
2013-04-22 20:12:00,67.2,46.8,24.38,SSW,192,0.0,0.0,48,0.00,,,0.00,Wunderground v.1.15,2013-04-23 01:12:00,
2013-04-22 20:17:00,66.8,46.5,24.38,SSW,192,0.0,0.0,48,0.00,,,0.00,Wunderground v.1.15,2013-04-23 01:17:00,
2013-04-22 20:22:00,66.4,46.7,24.37,SSW,192,0.0,0.0,49,0.00,,,0.00,Wunderground v.1.15,2013-04-23 01:22:00,
2013-04-22 20:27:00,66.0,46.8,24.34,SSW,192,0.0,0.0,50,0.00,,,0.00,Wunderground v.1.15,2013-04-23 01:27:00,
2013-04-22 20:32:00,65.6,46.5,24.37,SSW,192,0.0,0.0,50,0.00,,,0.00,Wunderground v.1.15,2013-04-23 01:32:00,
2013-04-22 20:37:00,65.2,46.6,24.39,SSW,192,0.0,0.0,51,0.00,,,0.00,Wunderground v.1.15,2013-04-23 01:37:00,
2013-04-22 20:42:00,64.8,46.2,24.40,SSW,192,0.0,0.0,51,0.00,,,0.00,Wunderground v.1.15,2013-04-23 01:42:00,
2013-04-22 20:47:00,64.5,46.0,24.38,SSW,192,0.0,0.0,51,0.00,,,0.00,Wunderground v.1.15,2013-04-23 01:47:00,
2013-04-22 20:52:00,64.1,46.1,24.41,SSW,192,0.0,0.0,52,0.00,,,0.00,Wunderground v.1.15,2013-04-23 01:52:00,
2013-04-22 20:57:00,63.8,45.8,24.44,SSW,192,0.0,0.0,52,0.00,,,0.00,Wunderground v.1.15,2013-04-23 01:57:00,
2013-04-22 21:02:00,63.5,45.6,24.38,SSW,192,0.0,0.0,52,0.00,,,0.00,Wunderground v.1.15,2013-04-23 02:02:00,
2013-04-22 21:07:00,63.3,45.4,24.38,SSW,192,0.0,0.0,52,0.00,,,0.00,Wunderground v.1.15,2013-04-23 02:07:00,
2013-04-22 21:12:00,63.0,45.6,24.38,SSW,192,0.0,0.0,53,0.00,,,0.00,Wunderground v.1.15,2013-04-23 02:12:00,
2013-04-22 21:17:00,62.8,45.9,24.39,SSW,192,0.0,0.0,54,0.00,,,0.00,Wunderground v.1.15,2013-04-23 02:17:00,
2013-04-22 21:22:00,62.5,45.1,24.37,SSW,192,0.0,0.0,53,0.00,,,0.00,Wunderground v.1.15,2013-04-23 02:22:00,
2013-04-22 21:27:00,62.3,44.9,24.38,SSW,192,0.0,0.0,53,0.00,,,0.00,Wunderground v.1.15,2013-04-23 02:27:00,
2013-04-22 21:32:00,62.0,45.2,24.39,SSW,192,0.0,0.0,54,0.00,,,0.00,Wunderground v.1.15,2013-04-23 02:32:00,
2013-04-22 21:37:00,61.8,45.0,24.39,SSW,192,0.0,0.0,54,0.00,,,0.00,Wunderground v.1.15,2013-04-23 02:37:00,
2013-04-22 21:42:00,61.6,45.3,24.40,SSW,192,0.0,0.0,55,0.00,,,0.00,Wunderground v.1.15,2013-04-23 02:42:00,
2013-04-22 21:47:00,61.4,45.1,24.42,SSW,192,0.0,0.0,55,0.00,,,0.00,Wunderground v.1.15,2013-04-23 02:47:00,
2013-04-22 21:52:00,61.3,45.9,24.38,SSW,192,0.0,0.0,57,0.00,,,0.00,Wunderground v.1.15,2013-04-23 02:52:00,
2013-04-22 21:57:00,61.0,46.1,24.38,SSW,192,0.0,0.0,58,0.00,,,0.00,Wunderground v.1.15,2013-04-23 02:57:00,
2013-04-22 22:02:00,60.8,45.9,24.38,SSW,192,0.0,0.0,58,0.00,,,0.00,Wunderground v.1.15,2013-04-23 03:02:00,
2013-04-22 22:07:00,60.6,45.7,24.38,SSW,192,0.0,0.0,58,0.00,,,0.00,Wunderground v.1.15,2013-04-23 03:07:00,
2013-04-22 22:12:00,60.4,45.5,24.37,SSW,192,0.0,0.0,58,0.00,,,0.00,Wunderground v.1.15,2013-04-23 03:12:00,
2013-04-22 22:17:00,60.2,45.4,24.38,SSW,192,0.0,1.0,58,0.00,,,0.00,Wunderground v.1.15,2013-04-23 03:17:00,
2013-04-22 22:22:00,60.1,45.7,24.38,SSW,192,0.0,0.0,59,0.00,,,0.00,Wunderground v.1.15,2013-04-23 03:22:00,
2013-04-22 22:27:00,60.0,45.6,24.38,SSW,192,0.0,0.0,59,0.00,,,0.00,Wunderground v.1.15,2013-04-23 03:27:00,
2013-04-22 22:32:00,59.9,45.1,24.37,SSW,192,0.0,0.0,58,0.00,,,0.00,Wunderground v.1.15,2013-04-23 03:32:00,
2013-04-22 22:37:00,59.8,45.4,24.36,SSW,192,0.0,0.0,59,0.00,,,0.00,Wunderground v.1.15,2013-04-23 03:37:00,
2013-04-22 22:42:00,59.8,45.4,24.38,SSW,192,0.0,0.0,59,0.00,,,0.00,Wunderground v.1.15,2013-04-23 03:42:00,
2013-04-22 22:47:00,59.8,45.4,24.37,SSW,192,0.0,0.0,59,0.00,,,0.00,Wunderground v.1.15,2013-04-23 03:47:00,
2013-04-22 22:52:00,59.7,45.3,24.38,South,178,0.0,1.0,59,0.00,,,0.00,Wunderground v.1.15,2013-04-23 03:52:00,
2013-04-22 22:57:00,59.7,45.3,24.38,South,178,0.0,1.0,59,0.00,,,0.00,Wunderground v.1.15,2013-04-23 03:57:00,
2013-04-22 23:01:00,59.7,45.3,24.37,South,178,0.0,0.0,59,0.00,,,0.00,Wunderground v.1.15,2013-04-23 04:01:00,
2013-04-22 23:06:00,59.6,45.7,24.37,South,178,0.0,0.0,60,0.00,,,0.00,Wunderground v.1.15,2013-04-23 04:06:00,
2013-04-22 23:11:00,59.6,45.2,24.37,South,178,0.0,0.0,59,0.00,,,0.00,Wunderground v.1.15,2013-04-23 04:11:00,
2013-04-22 23:16:00,59.7,45.8,24.37,South,178,0.0,0.0,60,0.00,,,0.00,Wunderground v.1.15,2013-04-23 04:16:00,
2013-04-22 23:21:00,59.7,45.8,24.37,South,178,0.0,0.0,60,0.00,,,0.00,Wunderground v.1.15,2013-04-23 04:21:00,
2013-04-22 23:26:00,59.7,45.8,24.37,South,178,0.0,0.0,60,0.00,,,0.00,Wunderground v.1.15,2013-04-23 04:26:00,
2013-04-22 23:31:00,59.7,45.3,24.37,SSE,150,0.0,0.0,59,0.00,,,0.00,Wunderground v.1.15,2013-04-23 04:31:00,
2013-04-22 23:36:00,59.7,46.2,24.37,SSE,149,0.0,0.0,61,0.00,,,0.00,Wunderground v.1.15,2013-04-23 04:36:00,
2013-04-22 23:41:00,59.7,45.3,24.37,SSE,149,0.0,0.0,59,0.00,,,0.00,Wunderground v.1.15,2013-04-23 04:41:00,
2013-04-22 23:46:00,59.7,45.8,24.37,SSE,148,0.0,0.0,60,0.00,,,0.00,Wunderground v.1.15,2013-04-23 04:46:00,
2013-04-22 23:51:00,59.7,45.8,24.37,SSE,148,0.0,0.0,60,0.00,,,0.00,Wunderground v.1.15,2013-04-23 04:51:00,
2013-04-22 23:56:00,59.6,45.7,24.37,SSE,148,0.0,0.0,60,0.00,,,0.00,Wunderground v.1.15,2013-04-23 04:56:00,